TimeEST,TemperatureF,Dew PointF,Humidity,Sea Level PressureIn,VisibilityMPH,Wind Direction,Wind SpeedMPH,Gust SpeedMPH,PrecipitationIn,Events,Conditions,WindDirDegrees,DateUTC
12:56 AM,51.1,48.0,89,29.99,8.0,NE,3.5,-,0.06,Rain,Light Rain,40,2013-02-13 05:56:00
1:56 AM,50.0,45.0,83,29.92,7.0,ENE,6.9,-,0.05,Rain,Light Rain,70,2013-02-13 06:56:00
2:56 AM,50.0,45.0,83,29.89,7.0,East,8.1,-,0.01,Rain,Light Rain,90,2013-02-13 07:56:00
3:56 AM,48.9,44.1,83,29.84,7.0,East,11.5,-,0.05,Rain,Light Rain,100,2013-02-13 08:56:00
4:33 AM,48.2,44.6,87,29.84,10.0,ENE,8.1,-,0.02,,Overcast,60,2013-02-13 09:33:00
4:56 AM,48.0,44.1,86,29.84,10.0,East,10.4,-,0.03,,Overcast,80,2013-02-13 09:56:00
5:56 AM,48.0,44.1,86,29.84,4.0,ENE,8.1,-,0.00,Rain,Light Rain,70,2013-02-13 10:56:00
6:09 AM,46.4,44.6,93,29.84,2.5,NE,5.8,-,0.01,Rain,Light Rain,50,2013-02-13 11:09:00
6:20 AM,46.4,44.6,93,29.84,3.0,ENE,6.9,-,0.02,Rain,Light Rain,60,2013-02-13 11:20:00
6:41 AM,46.4,44.6,93,29.83,3.0,ENE,4.6,-,0.04,Rain,Light Rain,60,2013-02-13 11:41:00
6:56 AM,46.9,44.1,90,29.83,3.0,NE,6.9,-,0.05,Rain,Light Rain,40,2013-02-13 11:56:00
7:56 AM,48.0,45.0,89,29.81,5.0,NE,5.8,-,0.01,,Overcast,40,2013-02-13 12:56:00
8:03 AM,48.2,44.6,87,29.81,3.0,NNE,5.8,-,N/A,,Overcast,20,2013-02-13 13:03:00
8:56 AM,48.0,45.0,89,29.81,5.0,North,5.8,-,0.00,,Overcast,360,2013-02-13 13:56:00
9:22 AM,48.2,44.6,87,29.79,1.8,NNE,8.1,-,N/A,,Overcast,20,2013-02-13 14:22:00
9:56 AM,48.0,46.0,93,29.78,2.5,North,8.1,-,0.00,,Overcast,10,2013-02-13 14:56:00
10:12 AM,48.2,44.6,87,29.80,3.0,NNW,8.1,-,N/A,,Overcast,340,2013-02-13 15:12:00
10:30 AM,48.2,46.4,93,29.79,1.5,Variable,4.6,-,N/A,,Overcast,0,2013-02-13 15:30:00
10:54 AM,48.2,46.4,93,29.77,5.0,NNE,5.8,-,N/A,,Overcast,20,2013-02-13 15:54:00
10:56 AM,48.9,46.9,93,29.78,6.0,North,5.8,-,N/A,,Overcast,10,2013-02-13 15:56:00
11:56 AM,51.1,46.9,86,29.75,10.0,Calm,Calm,-,N/A,,Overcast,0,2013-02-13 16:56:00
12:56 PM,52.0,48.0,86,29.71,10.0,Calm,Calm,-,N/A,,Overcast,0,2013-02-13 17:56:00
1:56 PM,53.1,48.9,86,29.71,5.0,Calm,Calm,-,N/A,,Overcast,0,2013-02-13 18:56:00
2:17 PM,51.8,50.0,94,29.68,2.5,Calm,Calm,-,N/A,,Overcast,0,2013-02-13 19:17:00
2:28 PM,53.6,50.0,88,29.65,1.0,SSE,8.1,-,N/A,,Overcast,160,2013-02-13 19:28:00
3:03 PM,55.4,51.8,88,29.69,5.0,WSW,11.5,18.4,N/A,,Overcast,250,2013-02-13 20:03:00
3:56 PM,57.0,54.0,89,29.69,5.0,SW,9.2,-,N/A,,Overcast,230,2013-02-13 20:56:00
4:03 PM,57.2,53.6,88,29.67,6.0,SW,9.2,-,N/A,,Overcast,220,2013-02-13 21:03:00
4:56 PM,55.9,53.1,90,29.68,7.0,SW,6.9,-,N/A,,Overcast,230,2013-02-13 21:56:00
5:03 PM,55.4,53.6,94,29.68,7.0,WSW,6.9,-,N/A,,Overcast,240,2013-02-13 22:03:00
5:56 PM,55.9,53.1,90,29.70,6.0,WSW,5.8,-,N/A,,Overcast,250,2013-02-13 22:56:00
6:02 PM,57.2,53.6,88,29.69,8.0,WSW,8.1,-,N/A,,Mostly Cloudy,240,2013-02-13 23:02:00
6:13 PM,57.2,53.6,88,29.69,7.0,WSW,12.7,20.7,N/A,,Mostly Cloudy,250,2013-02-13 23:13:00
6:56 PM,57.9,50.0,75,29.69,5.0,WSW,11.5,-,0.00,Rain,Light Rain,250,2013-02-13 23:56:00
7:56 PM,55.0,51.1,86,29.73,7.0,West,11.5,-,0.03,Rain,Light Rain,280,2013-02-14 00:56:00
8:03 PM,55.4,50.0,82,29.70,7.0,West,12.7,-,0.01,Rain,Light Rain,270,2013-02-14 01:03:00
8:56 PM,53.1,46.9,80,29.74,9.0,West,13.8,24.2,0.03,Rain,Light Rain,270,2013-02-14 01:56:00
9:56 PM,53.1,46.0,77,29.78,10.0,West,9.2,-,0.00,,Partly Cloudy,260,2013-02-14 02:56:00
10:21 PM,51.8,44.6,76,29.77,10.0,West,12.7,19.6,N/A,,Mostly Cloudy,280,2013-02-14 03:21:00
10:56 PM,53.1,44.1,71,29.79,10.0,West,11.5,21.9,N/A,,Overcast,280,2013-02-14 03:56:00
11:56 PM,51.1,44.1,77,29.83,10.0,West,10.4,-,N/A,,Mostly Cloudy,280,2013-02-14 04:56:00